Weather History for Minneapolis Flying Cloud, MN

Change the Weather History Date:

Friday, June 29, 2012

  Actual Average Record
Temperature  
Mean Temperature 76 °F -  
Max Temperature 90 °F 79 °F 91 °F (2002)
Min Temperature 63 °F 60 °F 51 °F (1999)
Cooling Degree Days 12    
Growing Degree Days 26 (Base 50)    
Moisture  
Dew Point 60 °F    
Average Humidity 59    
Maximum Humidity 87    
Minimum Humidity 31    
Precipitation  
Precipitation 0.00 in - - ()
Sea Level Pressure  
Sea Level Pressure 29.84 in    
Wind  
Wind Speed 3 mph (WSW)    
Max Wind Speed 9 mph    
Max Gust Speed -    
Visibility 10 miles    
Events      
Averages and records for this station are not official NWS values.
T = Trace of Precipitation, MM = Missing Value Source: NWS Daily Summary

Daily Weather History Graph

Daily Weather History Graph

Search for Another Location

Airport:

Trip Planner

Search our weather history database for the weather conditions in past years. The results will help you decide how hot, cold, wet, or windy it might be!

Date:

Astronomy

Jun. 29, 2012 Rise Set
Actual Time 5:30 AM CDT 9:03 PM CDT
Civil Twilight 4:53 AM CDT 9:40 PM CDT
Nautical Twilight 4:04 AM CDT 10:29 PM CDT
Astronomical Twilight 3:00 AM CDT 11:33 PM CDT
Moon 4:46 PM CDT (6/29) 1:48 AM CDT (6/29)
Length of Visible Light 16h 46m
Length of Day
15h 32m
Waxing Gibbous, 78% of the Moon is Illuminated
Jun 29
Waxing Gibbous
Jul 3
Full
Jul 10
Last Quarter
Jul 18
New
Jul 26
First Quarter

Hourly Weather History & Observations

Time (CDT) Temp. Heat Index Dew Point Humidity Pressure Visibility Wind Dir Wind Speed Gust Speed Precip Events Conditions
12:53 AM 69.1 °F - 57.9 °F 68% 29.89 in 10.0 mi SW 3.5 mph - N/A   Clear
1:53 AM 66.0 °F - 59.0 °F 78% 29.89 in 10.0 mi SW 3.5 mph - N/A   Clear
2:53 AM 64.9 °F - 60.1 °F 84% 29.89 in 10.0 mi Calm Calm - N/A   Clear
3:53 AM 64.9 °F - 60.1 °F 84% 29.88 in 10.0 mi Calm Calm - N/A   Clear
4:53 AM 63.0 °F - 59.0 °F 87% 29.87 in 10.0 mi Calm Calm - N/A   Clear
5:53 AM 63.0 °F - 59.0 °F 87% 29.87 in 10.0 mi Calm Calm - N/A   Clear
6:53 AM 64.9 °F - 61.0 °F 87% 29.88 in 10.0 mi Calm Calm - N/A   Clear
7:53 AM 70.0 °F - 60.1 °F 71% 29.89 in 10.0 mi Calm Calm - N/A   Clear
8:53 AM 73.0 °F - 57.0 °F 57% 29.88 in 10.0 mi SW 4.6 mph - N/A   Clear
9:53 AM 78.1 °F - 60.1 °F 54% 29.88 in 10.0 mi SSW 5.8 mph - N/A   Clear
10:53 AM 80.1 °F 81.1 °F 61.0 °F 52% 29.86 in 10.0 mi SW 4.6 mph - N/A   Clear
11:53 AM 82.9 °F 82.8 °F 59.0 °F 44% 29.86 in 10.0 mi Calm Calm - N/A   Clear
12:53 PM 84.9 °F 84.4 °F 59.0 °F 41% 29.85 in 10.0 mi WSW 5.8 mph - N/A   Clear
1:53 PM 87.1 °F 84.9 °F 53.1 °F 31% 29.84 in 10.0 mi SW 9.2 mph - N/A   Clear
2:53 PM 88.0 °F 85.9 °F 54.0 °F 31% 29.82 in 10.0 mi Calm Calm - N/A   Clear
3:53 PM 90.0 °F 88.6 °F 57.0 °F 33% 29.81 in 10.0 mi NW 4.6 mph - N/A   Clear
4:53 PM 86.0 °F 85.0 °F 57.9 °F 38% 29.81 in 10.0 mi WSW 4.6 mph - N/A   Clear
5:53 PM 87.1 °F 86.1 °F 57.9 °F 37% 29.79 in 10.0 mi West 6.9 mph - N/A   Clear
6:53 PM 86.0 °F 85.7 °F 60.1 °F 41% 29.77 in 10.0 mi West 3.5 mph - N/A   Clear
7:53 PM 82.9 °F 84.0 °F 63.0 °F 51% 29.78 in 10.0 mi Calm Calm - N/A   Clear
8:53 PM 81.0 °F 82.2 °F 63.0 °F 54% 29.79 in 10.0 mi West 3.5 mph - N/A   Clear
9:53 PM 80.1 °F 81.7 °F 64.0 °F 58% 29.79 in 10.0 mi SW 3.5 mph - N/A   Clear
10:53 PM 78.1 °F - 66.0 °F 66% 29.78 in 10.0 mi Calm Calm - N/A   Clear
11:53 PM 77.0 °F - 66.9 °F 71% 29.78 in 10.0 mi SW 3.5 mph - N/A   Clear